BEIDOU-3 M6 (C24)

Last updated on Mon Oct 20 2025 00:03:25 GMT+0000 (Coordinated Universal Time)

1 43582U 18062B 25291.87736058 -.00000006 00000+0 00000+0 0 9997 2 43582 54.0905 190.4992 0006764 33.5419 326.5568 1.86229924 49145
UTC large
Height (km)
Speed (km/s)
/
Latitude / Longitude
Inclination (degrees)
Orbital Period (minutes)
Azimuth
Elevation
Range (km)
Doppler Factor

Next 0 passes for location: London (51.5072 / 0.1276)

Sorry there are no passes over London.